EW3448 Victoria MT current weather conditions

sailwx.info

Wind from 171 at 6 knots gusting 11

Air temperature 16.7° C
Dewpoint 7.8° C

Last reported at 2020-Jan-22 12:46 UTC.
Time now 2020-Jan-22 13:30 UTC

Location: N 36°03' E 014°15'.
View on Google Maps.

See reports from other nearby stations

  
Tides and Currents Weather Stations Pressure Air Temp Water Temp Dewpoint Dewpoint Depression Visibility Wind Speed Wind Dir Waves Ship Positions
date/time (UTC)wind fromknots sea level pressurealtimeterstation pressurevisibilityair tempwater tempwave heightnotes
2020-Jan-22 13:01 160 4 gusting 9 16.1
2020-Jan-22 12:46 171 6 gusting 11 16.7
2020-Jan-22 12:31 170 4 gusting 8 16.7
2020-Jan-22 12:17 170 3 gusting 9 16.1
2020-Jan-22 12:01 169 6 gusting 11 16.1
2020-Jan-22 11:46 150 2 gusting 8 16.7
2020-Jan-22 11:31 178 3 gusting 7 16.1
2020-Jan-22 11:16 184 5 gusting 10 15.6
2020-Jan-22 11:01 170 5 gusting 9 15.6
2020-Jan-22 10:46 160 6 gusting 11 15.6
2020-Jan-22 10:30 175 4 gusting 9 15.6
2020-Jan-22 10:15 146 2 gusting 8 15.6
2020-Jan-22 10:01 165 0 gusting 9 15.6
2020-Jan-22 09:45 167 3 gusting 8 15.6
2020-Jan-22 09:31 155 5 gusting 8 15.6
2020-Jan-22 09:15 141 2 gusting 8 15.6
2020-Jan-22 09:00 162 2 gusting 7 15.0
2020-Jan-22 08:45 161 1 gusting 8 14.4
2020-Jan-22 08:30 135 13.3
2020-Jan-22 08:16 135 13.3
2020-Jan-22 08:02 135 13.3
2020-Jan-22 07:47 135 12.8
2020-Jan-22 07:31 135 12.8
2020-Jan-22 07:16 135 12.8
2020-Jan-22 07:01 135 12.2
2020-Jan-22 06:47 135 11.7
2020-Jan-22 06:31 135 11.7
2020-Jan-22 06:16 135 11.7
2020-Jan-22 06:02 135 11.7
2020-Jan-22 05:46 135 11.7
2020-Jan-22 05:31 135 11.7
2020-Jan-22 05:17 135 11.7
2020-Jan-22 05:01 135 11.7
2020-Jan-22 04:46 135 11.7
2020-Jan-22 04:33 135 11.7
2020-Jan-22 04:16 135 11.7
2020-Jan-22 04:01 135 11.7
2020-Jan-22 03:46 135 11.7
2020-Jan-22 03:30 135 11.7
2020-Jan-22 03:16 135 12.2
2020-Jan-22 03:01 135 12.2
2020-Jan-22 02:46 135 12.2
2020-Jan-22 02:31 135 0 gusting 5 12.2
2020-Jan-22 02:15 134 1 gusting 6 12.2
2020-Jan-22 02:01 136 12.8
2020-Jan-22 01:45 137 1 gusting 5 12.2
2020-Jan-22 01:30 136 0 gusting 5 12.2
2020-Jan-22 01:17 136 1 gusting 4 12.2
2020-Jan-22 01:01 136 0 gusting 4 12.8
2020-Jan-22 00:45 136 12.8
2020-Jan-22 00:30 136 0 gusting 4 12.8
2020-Jan-22 00:15 136 0 gusting 5 12.8
2020-Jan-22 00:01 136 1 gusting 5 12.8
2020-Jan-21 23:45 136 3 gusting 7 12.8
2020-Jan-21 23:31 134 1 gusting 6 13.3
2020-Jan-21 23:15 134 1 gusting 6 13.3
2020-Jan-21 23:00 137 0 gusting 6 13.3
2020-Jan-21 22:45 134 1 gusting 6 13.3
2020-Jan-21 22:30 133 1 gusting 6 13.3
2020-Jan-21 22:15 133 2 gusting 6 13.3
2020-Jan-21 22:00 136 0 gusting 6 13.3
2020-Jan-21 21:45 134 1 gusting 6 13.3
2020-Jan-21 21:30 133 1 gusting 5 13.3
2020-Jan-21 21:15 140 0 gusting 6 13.3
2020-Jan-21 21:01 135 1 gusting 6 13.3
2020-Jan-21 20:45 131 2 gusting 9 13.9
2020-Jan-21 20:30 128 3 gusting 10 13.9
2020-Jan-21 20:15 124 2 gusting 8 13.3
2020-Jan-21 20:00 131 2 gusting 7 13.9
2020-Jan-21 19:45 136 4 gusting 7 13.9
2020-Jan-21 19:30 127 3 gusting 8 13.9
2020-Jan-21 19:15 132 4 gusting 12 13.9
2020-Jan-21 19:00 140 4 gusting 12 13.9
2020-Jan-21 18:45 129 6 gusting 10 13.9
2020-Jan-21 18:30 119 4 gusting 10 13.9
2020-Jan-21 18:15 129 6 gusting 13 13.9
2020-Jan-21 18:00 124 5 gusting 10 13.9
2020-Jan-21 17:45 125 6 gusting 11 13.9
2020-Jan-21 17:30 134 4 gusting 11 14.4
2020-Jan-21 17:15 131 2 gusting 8 14.4
2020-Jan-21 17:00 128 3 gusting 12 14.4
2020-Jan-21 16:45 136 3 gusting 9 14.4
2020-Jan-21 16:32 129 5 gusting 13 14.4
2020-Jan-21 16:30 125 6 gusting 13 14.4
2020-Jan-21 16:18 127 6 gusting 13 14.4
2020-Jan-21 16:02 126 6 gusting 12 15.0
2020-Jan-21 15:46 154 1 gusting 7 15.0
2020-Jan-21 15:33 127 3 gusting 13 15.0
2020-Jan-21 15:16 122 6 gusting 13 15.0
2020-Jan-21 15:02 138 5 gusting 12 15.6
2020-Jan-21 14:47 129 5 gusting 13 15.6
2020-Jan-21 14:31 133 5 gusting 14 15.6
2020-Jan-21 14:17 153 7 gusting 15 15.6
2020-Jan-21 14:02 164 7 gusting 14 15.6
2020-Jan-21 13:47 134 6 gusting 17 15.6
2020-Jan-21 13:32 115 6 gusting 14 15.6
2020-Jan-21 13:17 120 6 gusting 16 15.6
2020-Jan-21 13:01 149 7 gusting 17 15.6
2020-Jan-21 12:47 130 7 gusting 16 16.1
2020-Jan-21 12:32 129 4 gusting 14 16.1
2020-Jan-21 12:16 144 7 gusting 15 16.1
2020-Jan-21 12:01 132 8 gusting 16 15.6
2020-Jan-21 11:47 141 6 gusting 13 16.1
2020-Jan-21 11:31 142 6 gusting 15 16.1
2020-Jan-21 11:17 180 7 gusting 14 16.1
2020-Jan-21 11:01 134 3 gusting 14 16.1
2020-Jan-21 10:46 128 6 gusting 15 16.1
2020-Jan-21 10:31 125 6 gusting 15 15.6
2020-Jan-21 10:16 143 3 gusting 12 16.1
2020-Jan-21 10:01 123 8 gusting 17 15.6
2020-Jan-21 09:46 155 6 gusting 13 15.6
2020-Jan-21 09:32 169 6 gusting 15 15.6
2020-Jan-21 09:16 138 5 gusting 20 15.6
2020-Jan-21 09:00 127 6 gusting 12 15.6
2020-Jan-21 08:46 133 6 gusting 13 15.6
2020-Jan-21 08:31 122 6 gusting 13 15.0
2020-Jan-21 08:16 136 6 gusting 14 15.0
2020-Jan-21 08:01 123 5 gusting 13 15.0
2020-Jan-21 07:45 125 5 gusting 13 14.4
2020-Jan-21 07:30 141 4 gusting 10 14.4
2020-Jan-21 07:15 130 4 gusting 13 14.4
2020-Jan-21 07:01 125 5 gusting 12 14.4
2020-Jan-21 06:45 131 2 gusting 13 14.4
2020-Jan-21 06:30 128 5 gusting 11 14.4
2020-Jan-21 06:18 124 3 gusting 11 14.4
2020-Jan-21 06:02 122 3 gusting 12 14.4
2020-Jan-21 05:48 125 4 gusting 9 14.4
2020-Jan-21 05:32 153 4 gusting 9 14.4
2020-Jan-21 05:16 130 4 gusting 10 13.9
2020-Jan-21 05:02 153 3 gusting 19 13.9
2020-Jan-21 04:47 151 2 gusting 11 13.9
2020-Jan-21 04:33 141 5 gusting 10 13.9
2020-Jan-21 04:16 146 5 gusting 15 14.4
2020-Jan-21 04:01 123 6 gusting 10 14.4
2020-Jan-21 03:47 137 4 gusting 10 14.4
2020-Jan-21 03:32 120 3 gusting 12 14.4
2020-Jan-21 03:17 122 6 gusting 10 14.4
2020-Jan-21 03:02 103 4 gusting 13 14.4
2020-Jan-21 02:46 117 4 gusting 9 14.4
2020-Jan-21 02:31 117 3 gusting 8 14.4
2020-Jan-21 02:16 117 2 gusting 9 14.4
2020-Jan-21 02:02 121 4 gusting 8 14.4
2020-Jan-21 01:46 112 4 gusting 8 14.4
2020-Jan-21 01:31 110 3 gusting 9 13.9
2020-Jan-21 01:16 109 4 gusting 11 13.9
2020-Jan-21 01:02 108 3 gusting 9 13.9
2020-Jan-21 00:46 115 3 gusting 9 13.9
2020-Jan-21 00:31 119 3 gusting 10 13.9
2020-Jan-21 00:16 105 4 gusting 12 13.9
2020-Jan-21 00:01 115 3 gusting 10 13.9
2020-Jan-20 23:46 109 5 gusting 10 13.9
2020-Jan-20 23:31 105 4 gusting 10 13.9
2020-Jan-20 23:16 108 5 gusting 12 13.9
2020-Jan-20 23:01 111 5 gusting 12 13.9
2020-Jan-20 22:45 052 6 gusting 11 13.9
2020-Jan-20 22:30 122 5 gusting 11 13.9
2020-Jan-20 22:15 115 5 gusting 10 13.9
2020-Jan-20 22:01 115 3 gusting 11 13.9
2020-Jan-20 21:45 112 4 gusting 10 13.3
2020-Jan-20 21:30 105 2 gusting 7 13.9
2020-Jan-20 21:15 116 3 gusting 9 13.9
2020-Jan-20 21:01 105 2 gusting 10 13.9
2020-Jan-20 20:46 108 2 gusting 7 13.3
2020-Jan-20 20:30 104 2 gusting 9 13.9
2020-Jan-20 20:15 112 5 gusting 8 13.9
2020-Jan-20 20:00 108 4 gusting 9 13.9
2020-Jan-20 19:45 116 4 gusting 14 13.9
2020-Jan-20 19:30 115 2 gusting 8 13.9
2020-Jan-20 19:15 114 2 gusting 9 13.9
2020-Jan-20 19:00 113 5 gusting 11 13.9
2020-Jan-20 18:45 115 6 gusting 12 13.9
2020-Jan-20 18:30 122 5 gusting 12 13.9
2020-Jan-20 18:15 120 5 gusting 13 13.9
2020-Jan-20 17:47 096 6 gusting 10 14.4
2020-Jan-20 17:45 094 6 gusting 10 14.4
2020-Jan-20 17:32 113 6 gusting 15 13.9
2020-Jan-20 17:18 103 5 gusting 12 13.9
2020-Jan-20 17:03 117 5 gusting 13 13.9
2020-Jan-20 16:48 115 6 gusting 14 13.9
2020-Jan-20 16:33 105 5 gusting 13 14.4
2020-Jan-20 16:17 101 6 gusting 12 14.4
2020-Jan-20 16:02 126 5 gusting 11 14.4
2020-Jan-20 15:47 115 6 gusting 13 14.4
2020-Jan-20 15:32 116 5 gusting 17 14.4
2020-Jan-20 15:19 117 7 gusting 14 15.0
2020-Jan-20 15:03 108 7 gusting 14 15.0
2020-Jan-20 14:46 110 8 gusting 14 15.0
2020-Jan-20 14:31 106 7 gusting 15 15.6
2020-Jan-20 14:16 113 5 gusting 18 15.6
2020-Jan-20 14:01 105 6 gusting 13 15.6
2020-Jan-20 13:47 101 7 gusting 14 15.6
2020-Jan-20 13:31 103 7 gusting 15 15.6
2020-Jan-20 13:16 096 6 gusting 13 15.6
2020-Jan-20 13:01 101 7 gusting 13 15.6